Weather History for VOTR - September, 2012

Change the Weather History Date:

Monday, September 24, 2012

  Actual Average Record
Temperature  
Mean Temperature 89 °F -  
Max Temperature 100 °F 87 °F 100 °F (2002)
Min Temperature 76 °F 76 °F 73 °F (2010)
Cooling Degree Days 24    
Growing Degree Days 39 (Base 50)    
Moisture  
Dew Point 71 °F    
Average Humidity 58    
Maximum Humidity 83    
Minimum Humidity 24    
Precipitation  
Precipitation 0.04 in - - ()
Sea Level Pressure  
Sea Level Pressure 29.78 in    
Wind  
Wind Speed 7 mph ()    
Max Wind Speed 17 mph    
Max Gust Speed -    
Visibility 3.5 miles    
Events Rain    
Averages and records for this station are not official NWS values.
T = Trace of Precipitation, MM = Missing Value Source: Averaged Metar Reports

Daily Weather History Graph

Daily Weather History Graph

Search for Another Location

Airport or City:

Trip Planner

Search our weather history database for the weather conditions in past years. The results will help you decide how hot, cold, wet, or windy it might be!

Date:

Astronomy

Sep. 24, 2012 Rise Set
Actual Time 6:04 AM IST 6:09 PM IST
Civil Twilight 5:43 AM IST 6:30 PM IST
Nautical Twilight 5:18 AM IST 6:55 PM IST
Astronomical Twilight 4:54 AM IST 7:19 PM IST
Moon 1:44 PM IST (9/24) 12:45 AM IST (9/24)
Length of Visible Light 12h 47m
Length of Day
12h 05m
Waxing Gibbous, 66% of the Moon is Illuminated
Sep 24
Waxing Gibbous
Sep 30
Full
Oct 8
Last Quarter
Oct 15
New
Oct 22
First Quarter

Hourly Weather History & Observations

Time (IST) Temp. Heat Index Dew Point Humidity Pressure Visibility Wind Dir Wind Speed Gust Speed Precip Events Conditions
12:10 AM 82.4 °F 88.2 °F 73.4 °F 74% 29.83 in 3.7 mi West 3.5 mph - N/A   Partly Cloudy
12:40 AM 82.4 °F 88.2 °F 73.4 °F 74% 29.80 in 3.7 mi WSW 3.5 mph - N/A   Partly Cloudy
1:10 AM 82.4 °F 88.2 °F 73.4 °F 74% 29.80 in 3.7 mi SSW 3.5 mph - N/A   Partly Cloudy
1:40 AM 82.4 °F 88.2 °F 73.4 °F 74% 29.80 in 3.7 mi SSW 3.5 mph - N/A   Partly Cloudy
2:10 AM 82.4 °F 88.2 °F 73.4 °F 74% 29.80 in 3.7 mi South 3.5 mph - N/A   Partly Cloudy
2:30 AM 82 °F - 73 °F 68% 29.79 in 2 mi SW 2.3 mph - -   Haze
2:40 AM 82.4 °F 88.2 °F 73.4 °F 74% 29.80 in 3.7 mi SW 2.3 mph - N/A   Partly Cloudy
3:10 AM 82.4 °F 88.2 °F 73.4 °F 74% 29.80 in 3.7 mi West 2.3 mph - N/A   Partly Cloudy
4:10 AM 82.4 °F 88.2 °F 73.4 °F 74% 29.80 in 3.7 mi West 3.5 mph - N/A   Partly Cloudy
5:10 AM 80.6 °F 84.6 °F 71.6 °F 74% 29.80 in 3.7 mi West 9.2 mph - N/A   Partly Cloudy
5:30 AM 80 °F - 67 °F 56% 29.79 in 2 mi WNW 9.2 mph - -   Haze
6:40 AM 80.6 °F 83.9 °F 69.8 °F 70% 29.80 in 2.5 mi WNW 10.4 mph - N/A   Haze
7:10 AM 80.6 °F 83.9 °F 69.8 °F 70% 29.83 in 2.5 mi WNW 9.2 mph - N/A   Haze
7:40 AM 82.4 °F 86.3 °F 69.8 °F 66% 29.83 in 2.5 mi West 11.5 mph - N/A   Haze
8:30 AM 84 °F - 68 °F 49% 29.82 in 2 mi West 13.8 mph - -   Haze
8:40 AM 84.2 °F 88.4 °F 69.8 °F 62% 29.83 in 3.1 mi West 16.1 mph - N/A   Haze
9:10 AM 86.0 °F 90.4 °F 69.8 °F 58% 29.83 in 3.1 mi WNW 16.1 mph - N/A   Haze
9:40 AM 86.0 °F 90.4 °F 69.8 °F 58% 29.83 in 3.1 mi West 16.1 mph - N/A   Haze
10:10 AM 87.8 °F 92.6 °F 69.8 °F 55% 29.83 in 3.7 mi West 17.3 mph - N/A   Mostly Cloudy
10:40 AM 87.8 °F 92.6 °F 69.8 °F 55% 29.83 in 3.7 mi West 17.3 mph - N/A   Mostly Cloudy
11:10 AM 89.6 °F 96.2 °F 71.6 °F 55% 29.80 in 3.7 mi WNW 15.0 mph - N/A   Scattered Clouds
11:30 AM 92 °F - 66 °F 33% 29.79 in 2 mi West 16.1 mph - -   Haze
11:40 AM 91.4 °F 95.4 °F 68.0 °F 46% 29.77 in 5.0 mi West 11.5 mph - N/A   Scattered Clouds
12:10 PM 93.2 °F 97.7 °F 68.0 °F 44% 29.77 in 5.0 mi NNW 10.4 mph - N/A   Scattered Clouds
12:40 PM 93.2 °F 98.8 °F 69.8 °F 46% 29.77 in 5.0 mi NW 13.8 mph - N/A   Scattered Clouds
1:10 PM 93.2 °F 97.7 °F 68.0 °F 44% 29.74 in 5.0 mi NW 16.1 mph - N/A   Scattered Clouds
1:40 PM 95.0 °F 99.5 °F 68.0 °F 41% 29.71 in 5.0 mi WNW 9.2 mph - N/A   Scattered Clouds
2:30 PM 99 °F - 66 °F 24% 29.69 in 2 mi NW 6.9 mph - -   Haze
2:40 PM 98.6 °F 104.1 °F 68.0 °F 37% 29.71 in 5.0 mi NW 6.9 mph - N/A   Partly Cloudy
3:10 PM 98.6 °F 104.1 °F 68.0 °F 37% 29.68 in 5.0 mi NW 5.8 mph - N/A   Partly Cloudy
3:40 PM 98.6 °F 104.1 °F 68.0 °F 37% 29.68 in 5.0 mi NW 5.8 mph - N/A   Partly Cloudy
4:10 PM 98.6 °F 104.1 °F 68.0 °F 37% 29.68 in 5.0 mi NW 6.9 mph - N/A   Partly Cloudy
4:40 PM 98.6 °F 104.1 °F 68.0 °F 37% 29.68 in 3.7 mi NNW 9.2 mph - N/A   Partly Cloudy
5:10 PM 96.8 °F 103.1 °F 69.8 °F 41% 29.68 in 3.7 mi North 6.9 mph - N/A   Partly Cloudy
5:30 PM 96 °F - 68 °F 31% 29.68 in 2 mi NE 5.8 mph - -   Haze
5:40 PM 96.8 °F 101.8 °F 68.0 °F 39% 29.68 in 3.7 mi NE 5.8 mph - N/A   Partly Cloudy
6:10 PM 93.2 °F 100.5 °F 71.6 °F 49% 29.71 in 3.7 mi ESE 6.9 mph - N/A   Mostly Cloudy
6:40 PM 91.4 °F 98.4 °F 71.6 °F 52% 29.74 in 3.7 mi ESE 9.2 mph - N/A   Mostly Cloudy
7:10 PM 87.8 °F 95.6 °F 73.4 °F 62% 29.77 in 3.7 mi SSE 9.2 mph - N/A   Mostly Cloudy
7:40 PM 84.2 °F 90.9 °F 73.4 °F 70% 29.77 in 3.7 mi SSE 9.2 mph - N/A   Mostly Cloudy
8:10 PM 84.2 °F 92.3 °F 75.2 °F 74% 29.83 in 3.7 mi South 5.8 mph - N/A   Mostly Cloudy
8:30 PM 82 °F - 70 °F 59% 29.82 in 2 mi SW 13.8 mph - -   Haze
8:40 PM 82.4 °F 88.2 °F 73.4 °F 74% 29.83 in 3.7 mi SW 8.1 mph - N/A   Mostly Cloudy
9:10 PM 82.4 °F 88.2 °F 73.4 °F 74% 29.83 in 3.7 mi South 9.2 mph - N/A   Mostly Cloudy
9:40 PM 82.4 °F 88.2 °F 73.4 °F 74% 29.83 in 3.7 mi South 5.8 mph - N/A   Mostly Cloudy
11:10 PM 80.6 °F 85.4 °F 73.4 °F 79% 29.83 in 3.1 mi NW 3.5 mph - N/A   Light Drizzle
11:30 PM 76 °F - 72 °F 83% 29.81 in 2 mi WNW 6.9 mph - - Rain Light Drizzle